#timestamp,LO_Frequency,Hit,StdDev 
1549803615.5,286046997.2,N
1549803635.4,286046996.7,N
1549803655.2,286046997.8,N
1549803675.0,286046999.1,N
1549803675.9,286046999.1,N
1549803695.8,286046999.6,N
1549803715.6,286046996.6,N
1549803735.4,286046996.6,N
1549803755.3,286046997.9,N
1549803775.1,286046997.4,N
1549803795.9,286046997.8,N
1549803815.7,286046999.5,N
1549803835.5,286046999.6,N
1549803855.4,286046996.5,N
1549803875.2,286046996.9,N
1549803895.0,286046999.3,N
1549803896.0,286046999.3,N
1549803915.8,286046996.7,N
1549803935.6,286046999.6,N
1549803955.5,286046996.9,N
1549803975.3,286046998.6,N
1549803995.1,286046999.6,N
1549804015.9,286046996.9,N
1549804035.7,286046999.3,N
1549804055.6,286046999.4,N
1549804075.4,286046997.1,N
1549804095.2,286046997.4,N
1549804115.1,286046997.2,N
1549804116.0,286046997.2,N
1549804135.8,286046997.4,N
1549804155.6,286046995.7,Y
1549804175.5,286046996.7,P
1549804195.3,286046997.7,P
1549804215.2,286046996.5,P
1549804235.9,286046997.1,Y
1549804255.7,286047002.2,P
1549804275.6,286047002.4,N
1549804295.4,286047001.8,N
1549804315.2,286047002.6,N
1549804335.1,286047001.8,N
1549804336.0,286047001.8,N
1549804355.8,286047001.6,N
1549804375.7,286047004.0,N
1549804395.5,286047003.8,N
1549804415.3,286047003.2,N
1549804435.2,286047003.9,N
1549804455.0,286047004.9,N
1549804455.9,286047004.9,N
1549804475.8,286047003.0,N
1549804495.6,286047004.9,N
1549804515.4,286047004.8,N
1549804535.3,286047007.4,Y
1549804555.1,286047001.5,P
1549804575.8,286047004.1,P
1549804595.7,286047004.2,P
1549804615.5,286047001.3,N
1549804635.4,286047000.8,N
1549804655.2,286046998.1,N
1549804675.0,286047000.3,N
1549804675.9,286047000.3,N
1549804695.8,286046999.8,N
1549804715.6,286047002.7,N
1549804735.4,286047000.7,N
1549804755.3,286047001.2,N
1549804775.1,286047000.6,N
1549804795.9,286047001.2,N
1549804815.7,286046998.4,N
1549804835.5,286046998.3,N
1549804855.4,286046998.3,N
1549804875.2,286046998.2,N
1549804895.0,286046998.2,N
1549804895.9,286046998.2,N
1549804915.8,286047001.0,N
1549804935.6,286047000.5,N
1549804955.5,286047002.2,N
1549804975.3,286047000.0,N
1549804995.1,286046998.5,N
1549805045.8,286047000.9,E
1549805055.7,286047001.1,N
1549805075.5,286046998.5,P
1549805095.4,286047000.6,N
1549805115.2,286047001.0,N
1549805135.1,286046999.9,N
1549805136.0,286046999.9,N
1549805155.8,286047001.9,N
1549805175.6,286047000.5,N
1549805195.5,286047000.3,N
1549805215.3,286047002.1,N
1549805235.2,286047001.5,N
1549805255.9,286047002.6,N
1549805275.7,286047000.0,N
1549805295.6,286047002.5,N
1549805315.4,286047002.3,N
1549805335.3,286047000.0,N
1549805355.1,286046999.7,N
1549805356.0,286046999.7,N
1549805375.8,286047004.2,Y
1549805395.7,286047002.4,P
1549805415.5,286047000.9,N
1549805435.4,286047000.0,N
1549805455.2,286047000.0,N
1549805475.1,286046999.9,N
1549805476.0,286046999.9,N
1549805495.8,286047000.0,N
1549805515.6,286047000.8,N
1549805535.5,286047000.3,N
1549805555.3,286047002.0,N
1549805575.2,286047000.9,N
1549805595.9,286047000.8,N
1549805615.7,286047000.6,N
1549805635.6,286046998.1,N
1549805655.4,286047001.2,N
1549805675.2,286046998.5,N
1549805695.1,286046999.7,N
1549805696.0,286046999.7,N
1549805715.8,286047000.8,N
1549805735.7,286046998.3,N
1549805755.5,286046999.2,N
1549805775.3,286047000.7,N
1549805795.2,286046998.1,N
1549805815.0,286046999.5,N
1549805815.9,286046999.5,N
1549805835.7,286046998.9,N
1549805855.6,286047000.8,N
1549805875.4,286046998.4,N
1549805895.3,286046998.4,N
1549805915.1,286046998.3,N
1549805916.0,286046998.3,N
1549805935.8,286046998.8,N
1549805955.7,286046998.8,N
1549805975.5,286047001.0,N
1549805995.3,286046999.9,N
1549806015.2,286047000.6,N
1549806035.0,286046998.6,N
1549806035.9,286046998.6,N
1549806055.8,286046998.6,N
1549806075.6,286046998.9,N
1549806095.4,286046998.7,N
1549806115.3,286046998.2,N
1549806135.1,286046999.6,N
1549806155.9,286047000.2,N
1549806175.7,286047001.6,N
1549806195.5,286047004.0,Y
1549806215.4,286047020.4,P
1549806235.2,286047018.1,N
1549806255.0,286047011.3,N
1549806255.9,286047011.3,N
1549806275.8,286047008.2,N
1549806295.6,286047004.9,N
1549806315.5,286047002.9,N
1549806335.3,286047005.9,N
1549806355.1,286047003.4,N
1549806375.9,286047004.2,N
1549806395.7,286047002.9,N
1549806415.5,286047003.7,N
1549806435.4,286047002.4,N
1549806455.2,286047002.1,N
1549806475.1,286047004.4,N
1549806476.0,286047004.4,N
1549806495.8,286047002.5,N
1549806515.6,286047001.6,N
1549806535.5,286047004.4,N
1549806555.3,286047002.5,N
1549806575.2,286047004.1,N
1549806595.9,286047002.5,N
1549806615.7,286047002.2,N
1549806635.6,286047001.9,N
1549806655.4,286047002.0,N
1549806675.2,286047002.7,N
1549806695.1,286047002.4,N
1549806696.0,286047002.4,N
1549806715.9,286046999.8,N
1549806735.7,286047000.8,N
1549806755.6,286046998.1,N
1549806775.4,286046998.5,N
1549806795.3,286047000.4,N
1549806815.1,286047000.8,N
1549806816.0,286047000.8,N
1549806835.8,286046999.8,N
1549806855.7,286047000.8,N
1549806875.5,286047000.4,N
1549806895.3,286047000.1,N
1549806915.2,286047002.4,N
1549806935.0,286047001.6,N
1549806935.9,286047001.6,N
1549806955.8,286046999.8,N
1549806975.6,286047000.1,N
1549806995.4,286047002.5,N
1549807015.3,286046999.7,N
1549807035.1,286047000.7,N
1549807055.8,286047000.3,N
1549807075.7,286047000.7,N
1549807095.5,286046998.6,N
1549807115.4,286046998.1,N
1549807135.2,286046999.4,N
1549807155.0,286046999.4,N
1549807155.9,286046999.4,N
1549807175.8,286046998.6,N
1549807195.6,286046997.1,N
